Belden, MS

3:04 AM CDT on August 26, 2016 (GMT -0500)
Tupelo Regional

Weather History for KTUP - March, 2013

Change the Weather History Date:

Tuesday, March 5, 2013

  Actual Average Record
Temperature  
Mean Temperature 49 °F 51 °F  
Max Temperature 59 °F 62 °F 81 °F (1939)
Min Temperature 39 °F 40 °F 12 °F (1978)
Degree Days  
Heating Degree Days 16 14  
Month to date heating degree days 118 74  
Since 1 July heating degree days 2344 2505  
Cooling Degree Days 0 0  
Month to date cooling degree days 0 0  
Year to date cooling degree days 6 2  
Moisture  
Dew Point 41 °F    
Average Humidity 65    
Maximum Humidity 86    
Minimum Humidity 43    
Precipitation  
Precipitation 0.18 in 0.17 in 3.52 in (1983)
Month to date precipitation 0.18 0.87  
Year to date precipitation 12.61 10.31  
Snow  
Snow 0.00 in 0.00 in 0.50 in (1932)
Month to date snowfall T 0.1  
Since 1 July snowfall T 1.9  
Snow Depth 0.00 in    
Sea Level Pressure  
Sea Level Pressure 29.93 in    
Wind  
Wind Speed 11 mph (West)    
Max Wind Speed 23 mph    
Max Gust Speed 37 mph    
Visibility 9 miles    
Events Rain , Thunderstorm    
T = Trace of Precipitation, MM = Missing Value Source: NWS Daily Summary

Daily Weather History Graph

Daily Weather History Graph

Search for Another Location

Airport or City:

Trip Planner

Search our weather history database for the weather conditions in past years. The results will help you decide how hot, cold, wet, or windy it might be!

Date:

Astronomy

Mar. 05, 2013 Rise Set
Actual Time 6:18 AM CST 5:54 PM CST
Civil Twilight 5:53 AM CST 6:20 PM CST
Nautical Twilight 5:24 AM CST 6:49 PM CST
Astronomical Twilight 4:55 AM CST 7:18 PM CST
Moon 1:19 AM CST (3/5) 11:45 AM CST (3/5)
Length of Visible Light 12h 26m
Length of Day
11h 36m
Last Quarter, 40% of the Moon is Illuminated
Mar 5
Last Quarter
Mar 11
New
Mar 19
First Quarter
Mar 27
Full
Apr 2
Last Quarter

Hourly Weather History & Observations

Time (CST) Temp. Windchill Dew Point Humidity Pressure Visibility Wind Dir Wind Speed Gust Speed Precip Events Conditions
12:53 AM 55.9 °F - 46.9 °F 72% 29.86 in 10.0 mi SSW 11.5 mph - N/A   Scattered Clouds
1:53 AM 55.9 °F - 48.0 °F 75% 29.87 in 10.0 mi SSW 10.4 mph - N/A   Overcast
2:53 AM 57.9 °F - 50.0 °F 75% 29.86 in 10.0 mi SSW 17.3 mph 24.2 mph N/A   Overcast
3:53 AM 57.0 °F - 48.9 °F 74% 29.86 in 10.0 mi SSW 12.7 mph - N/A   Overcast
4:03 AM 57.2 °F - 48.2 °F 72% 29.86 in 10.0 mi SSW 12.7 mph - N/A   Overcast
4:20 AM 57.2 °F - 48.2 °F 72% 29.86 in 10.0 mi SSW 11.5 mph - N/A   Overcast
4:53 AM 57.0 °F - 50.0 °F 77% 29.86 in 10.0 mi SSW 13.8 mph 19.6 mph N/A   Overcast
5:53 AM 57.0 °F - 51.1 °F 81% 29.86 in 10.0 mi SSW 15.0 mph - N/A   Overcast
6:53 AM 57.0 °F - 51.1 °F 81% 29.83 in 10.0 mi SSW 12.7 mph - N/A   Overcast
7:13 AM 57.2 °F - 51.8 °F 82% 29.82 in 10.0 mi SSW 15.0 mph 23.0 mph N/A Thunderstorm Thunderstorm
7:51 AM 55.4 °F - 53.6 °F 94% 29.83 in 10.0 mi SSW 17.3 mph - N/A   Overcast
7:53 AM 57.0 °F - 53.1 °F 87% 29.82 in 10.0 mi SSW 13.8 mph - N/A   Overcast
8:16 AM 55.4 °F - 53.6 °F 94% 29.83 in 8.0 mi SW 11.5 mph - N/A Rain , Thunderstorm Light Thunderstorms and Rain
8:38 AM 57.2 °F - 53.6 °F 88% 29.83 in 8.0 mi SW 9.2 mph 21.9 mph 0.01 in Rain , Thunderstorm Light Thunderstorms and Rain
8:53 AM 57.0 °F - 54.0 °F 89% 29.82 in 10.0 mi SW 8.1 mph - 0.03 in   Overcast
9:53 AM 57.0 °F - 55.0 °F 93% 29.80 in 2.5 mi SSW 4.6 mph - 0.02 in Rain Rain
10:03 AM 57.2 °F - 55.4 °F 94% 29.80 in 2.5 mi SW 4.6 mph - 0.03 in Rain Light Rain
10:17 AM 57.2 °F - 55.4 °F 94% 29.79 in 4.0 mi Calm Calm - 0.06 in Rain Light Rain
10:31 AM 55.4 °F - 53.6 °F 94% 29.82 in 3.0 mi NW 11.5 mph 28.8 mph 0.07 in Rain , Thunderstorm Light Thunderstorms and Rain
10:45 AM 51.8 °F - 48.2 °F 88% 29.82 in 10.0 mi North 17.3 mph 27.6 mph 0.08 in Rain , Thunderstorm Light Thunderstorms and Rain
10:53 AM 50.0 °F - 48.0 °F 93% 29.86 in 8.0 mi NNW 17.3 mph 36.8 mph 0.08 in Rain , Thunderstorm Light Thunderstorms and Rain
11:10 AM 48.2 °F - 46.4 °F 93% 29.89 in 5.0 mi NW 12.7 mph 27.6 mph 0.04 in Rain , Thunderstorm Thunderstorms and Rain
11:12 AM 48.2 °F - 46.4 °F 93% 29.90 in 5.0 mi NW 12.7 mph 27.6 mph 0.04 in Rain Light Rain
11:53 AM 46.0 °F 39.6 °F 33.1 °F 61% 29.92 in 10.0 mi NW 15.0 mph 23.0 mph 0.05 in   Overcast
12:31 PM 44.6 °F 37.2 °F 33.8 °F 66% 29.96 in 10.0 mi NNW 17.3 mph 28.8 mph 0.00 in   Overcast
12:53 PM 44.1 °F 36.8 °F 33.8 °F 67% 29.98 in 10.0 mi NNW 16.1 mph 24.2 mph 0.00 in   Overcast
1:53 PM 44.1 °F 37.4 °F 34.0 °F 68% 30.00 in 10.0 mi NNW 13.8 mph 27.6 mph N/A   Overcast
2:49 PM 44.6 °F 39.7 °F 32.0 °F 61% 30.03 in 10.0 mi NNW 9.2 mph 26.5 mph N/A   Overcast
2:53 PM 45.0 °F 39.3 °F 31.1 °F 58% 30.03 in 10.0 mi North 11.5 mph 18.4 mph N/A   Overcast
3:53 PM 46.9 °F - 32.0 °F 56% 30.04 in 10.0 mi NW 8.1 mph 21.9 mph N/A   Scattered Clouds
4:53 PM 48.0 °F - 32.0 °F 54% 30.06 in 10.0 mi NNW 10.4 mph 17.3 mph N/A   Partly Cloudy
5:53 PM 48.0 °F - 32.0 °F 54% 30.06 in 10.0 mi NNW 6.9 mph - N/A   Clear
6:53 PM 44.1 °F 41.5 °F 30.0 °F 58% 30.08 in 10.0 mi NW 4.6 mph - N/A   Clear
7:53 PM 43.0 °F 39.5 °F 28.0 °F 56% 30.11 in 10.0 mi NNW 5.8 mph - N/A   Clear
8:53 PM 42.1 °F 39.2 °F 23.0 °F 47% 30.11 in 10.0 mi NW 4.6 mph - N/A   Clear
9:53 PM 42.1 °F 37.7 °F 21.9 °F 45% 30.13 in 10.0 mi NNW 6.9 mph - N/A   Clear
10:53 PM 41.0 °F 35.8 °F 23.0 °F 49% 30.15 in 10.0 mi NNW 8.1 mph - N/A   Clear
11:53 PM 39.9 °F 32.9 °F 21.9 °F 49% 30.17 in 10.0 mi North 11.5 mph - N/A   Clear